CDG2178 ZSPD-ZYTL

Flight info

Callsign CDG2178
Flight time N/A
Altitude 31100
Route ODU84D/16R ODULO B221 XDX URBAD W172 IGDEG W173 NIXEP
Aircraft A321/M-SDE2E3FGILRWXY/LB1D1

Departure

Time N/A
Airport Shanghai Pudong International Airport (ZSPD)

Arrival

Time 2026-04-25 12:51
Airport Dalian Zhoushuizi International Airport (ZYTL)
Time Latitude Longitude Altitude Speed Heading
2026-04-25 12:30 38.75882 121.70744 25502 ft 389 kts 24°
2026-04-25 12:30 38.78295 121.72175 24744 ft 381 kts 24°
2026-04-25 12:30 38.80666 121.73583 23981 ft 374 kts 24°
2026-04-25 12:30 38.82991 121.74963 23205 ft 367 kts 24°
2026-04-25 12:31 38.85183 121.76546 22379 ft 363 kts 39°
2026-04-25 12:31 38.86709 121.79077 21615 ft 361 kts 66°
2026-04-25 12:31 38.87195 121.82172 20889 ft 360 kts 92°
2026-04-25 12:31 38.86571 121.85215 20183 ft 357 kts 116°
2026-04-25 12:32 38.85428 121.88013 19456 ft 356 kts 114°
2026-04-25 12:32 38.84584 121.90960 18726 ft 354 kts 104°
2026-04-25 12:32 38.84224 121.94048 17984 ft 352 kts 94°
2026-04-25 12:32 38.84084 121.97149 17286 ft 351 kts 92°
2026-04-25 12:33 38.83980 122.00269 16571 ft 350 kts 91°
2026-04-25 12:33 38.83884 122.03359 15851 ft 349 kts 92°
2026-04-25 12:33 38.83591 122.06418 15133 ft 348 kts 100°
2026-04-25 12:33 38.83140 122.09434 14413 ft 347 kts 101°
2026-04-25 12:34 38.82672 122.12412 13678 ft 340 kts 101°
2026-04-25 12:34 38.82211 122.15322 12938 ft 332 kts 101°
2026-04-25 12:34 38.81757 122.18172 12213 ft 326 kts 101°
2026-04-25 12:34 38.81458 122.20055 11726 ft 322 kts 102°
2026-04-25 12:35 38.80996 122.23762 10760 ft 315 kts 94°
2026-04-25 12:35 38.80886 122.26520 10027 ft 311 kts 92°
2026-04-25 12:35 38.80823 122.29247 9304 ft 307 kts 91°
2026-04-25 12:35 38.80777 122.31947 8576 ft 304 kts 91°
2026-04-25 12:36 38.80747 122.34615 7848 ft 301 kts 91°
2026-04-25 12:36 38.80731 122.37263 7128 ft 299 kts 91°
2026-04-25 12:36 38.80924 122.39894 6384 ft 298 kts 73°
2026-04-25 12:36 38.81899 122.42179 5655 ft 296 kts 46°
2026-04-25 12:37 38.83521 122.43620 5191 ft 280 kts 17°
2026-04-25 12:37 38.85362 122.43973 4755 ft 262 kts 348°
2026-04-25 12:37 38.87017 122.43179 4496 ft 252 kts 320°
2026-04-25 12:37 38.88127 122.41596 4236 ft 232 kts 294°
2026-04-25 12:38 38.88585 122.39692 4018 ft 220 kts 276°
2026-04-25 12:38 38.88801 122.37799 3931 ft 208 kts 275°
2026-04-25 12:38 38.88996 122.36014 3842 ft 199 kts 275°
2026-04-25 12:38 38.89190 122.34267 3768 ft 199 kts 275°
2026-04-25 12:39 38.89387 122.32521 3690 ft 198 kts 275°
2026-04-25 12:39 38.89587 122.30777 3612 ft 199 kts 275°
2026-04-25 12:39 38.89790 122.29029 3537 ft 199 kts 275°
2026-04-25 12:39 38.89993 122.27281 3462 ft 199 kts 275°
2026-04-25 12:40 38.90199 122.25523 3385 ft 199 kts 275°
2026-04-25 12:40 38.90403 122.23775 3309 ft 199 kts 275°
2026-04-25 12:40 38.90608 122.22025 3234 ft 199 kts 276°
2026-04-25 12:40 38.90813 122.20277 3158 ft 199 kts 276°
2026-04-25 12:41 38.91018 122.18530 3084 ft 198 kts 275°
2026-04-25 12:41 38.91222 122.16792 3005 ft 197 kts 276°
2026-04-25 12:41 38.91424 122.15059 2999 ft 197 kts 275°
2026-04-25 12:41 38.91626 122.13315 2971 ft 198 kts 275°
2026-04-25 12:42 38.91828 122.11587 2908 ft 196 kts 275°
2026-04-25 12:42 38.91960 122.10444 2856 ft 196 kts 275°
2026-04-25 12:42 38.92226 122.08143 2755 ft 195 kts 276°
2026-04-25 12:42 38.92413 122.06427 2678 ft 195 kts 274°
2026-04-25 12:43 38.92555 122.04706 2601 ft 195 kts 273°
2026-04-25 12:43 38.92693 122.02983 2528 ft 195 kts 273°
2026-04-25 12:43 38.92970 121.99516 2374 ft 195 kts 273°
2026-04-25 12:44 38.93109 121.97788 2296 ft 195 kts 273°
2026-04-25 12:44 38.93246 121.96066 2218 ft 195 kts 273°
2026-04-25 12:44 38.93518 121.92631 2063 ft 193 kts 273°
2026-04-25 12:45 38.93653 121.90916 1999 ft 191 kts 273°
2026-04-25 12:45 38.93790 121.89196 1991 ft 192 kts 273°
2026-04-25 12:45 38.94051 121.85799 1986 ft 191 kts 273°
2026-04-25 12:46 38.94181 121.84144 1952 ft 180 kts 273°
2026-04-25 12:46 38.94331 121.82604 1961 ft 172 kts 275°
2026-04-25 12:46 38.94484 121.81086 2026 ft 172 kts 275°
2026-04-25 12:46 38.94623 121.79565 2036 ft 172 kts 274°
2026-04-25 12:47 38.94751 121.78030 2007 ft 173 kts 273°
2026-04-25 12:47 38.94869 121.76502 1988 ft 172 kts 273°
2026-04-25 12:47 38.94984 121.74975 1933 ft 173 kts 273°
2026-04-25 12:47 38.95097 121.73448 1890 ft 173 kts 272°
2026-04-25 12:48 38.95210 121.71917 1877 ft 173 kts 272°
2026-04-25 12:48 38.95323 121.70385 1885 ft 171 kts 272°
2026-04-25 12:48 38.95430 121.68966 1904 ft 154 kts 272°
2026-04-25 12:48 38.95530 121.67608 1894 ft 151 kts 272°
2026-04-25 12:49 38.95629 121.66272 1784 ft 150 kts 272°
2026-04-25 12:49 38.95729 121.64946 1590 ft 150 kts 272°
2026-04-25 12:49 38.95828 121.63621 1394 ft 150 kts 273°
2026-04-25 12:49 38.95929 121.62285 1191 ft 152 kts 272°
2026-04-25 12:50 38.96030 121.60967 977 ft 145 kts 272°
2026-04-25 12:50 38.96126 121.59701 781 ft 143 kts 271°
2026-04-25 12:50 38.96221 121.58429 604 ft 140 kts 273°
2026-04-25 12:50 38.96313 121.57227 420 ft 134 kts 274°
2026-04-25 12:51 38.96405 121.56032 245 ft 137 kts 272°
2026-04-25 12:51 38.96492 121.54834 125 ft 128 kts 274°
2026-04-25 12:51 38.96548 121.53985 122 ft 53 kts 278°
2026-04-25 12:51 38.96572 121.53741 122 ft 22 kts 276°
2026-04-25 12:52 38.96589 121.53550 122 ft 21 kts 277°
2026-04-25 12:52 38.96579 121.53366 122 ft 20 kts 258°
2026-04-25 12:52 38.96533 121.53199 122 ft 20 kts 246°
2026-04-25 12:52 38.96481 121.53099 122 ft 11 kts 198°
2026-04-25 12:53 38.96410 121.53138 122 ft 12 kts 161°
2026-04-25 12:53 38.96327 121.53141 122 ft 10 kts 182°
2026-04-25 12:53 38.96283 121.53138 122 ft 1 kts 182°
2026-04-25 12:53 38.96275 121.53138 122 ft 2 kts 182°
2026-04-25 12:54 38.96269 121.53137 122 ft 0 kts 182°